Regional Weather Roundup
Issued by NWS

Home | Current Version | Previous Version | Text Only | Print | Product List | Glossary Off
Versions: 1 2 3 4 5 6 7 8 9 10 11 12 13 14 15 16 17 18 19 20 21 22 23 24 25 26 27

000
ASUS45 KBOU 180006
RWRCO

WEATHER ROUNDUP FOR COLORADO
NATIONAL WEATHER SERVICE DENVER/BOULDER CO
600 PM MDT THU APR 17 2014

NOTE: "FAIR" INDICATES FEW OR NO CLOUDS BELOW 12000 FEET WITH NO
SIGNIFICANT WEATHER AND/OR OBSTRUCTIONS TO VISIBILITY.

COZ001>005-013-030-031-180100-
...NORTHWEST COLORADO...

CITY           SKY/WX    TMP DP  RH WIND       PRES   REMARKS
CRAIG          PTSUNNY   60  22  23 W16       30.01F
HAYDEN         PTSUNNY   57  21  24 W9        30.05F
MEEKER         SUNNY     63  20  19 SW14      30.02S
MOUNT WERNER   PTSUNNY   41  10  28 W8        30.20S
STEAMBOAT SPGS PTSUNNY   58  10  15 CALM      30.04S
WALDEN         SUNNY     50  18  27 SW15      30.09R
$$

COZ006>008-011-180100-
...WEST CENTRAL VALLEYS...

CITY           SKY/WX    TMP DP  RH WIND       PRES   REMARKS
GRAND JUNCTION SUNNY     65  20  17 VRB5      29.99F
MONTROSE       SUNNY     66  18  15 MISG      30.04F
EAGLE          MOSUNNY   61  21  21 W17       30.05F
RIFLE          SUNNY     64  19  17 W17G30    30.01F
DELTA          NOT AVBL
NUCLA          NOT AVBL
$$

COZ017>023-064>068-180100-
...SOUTHWEST COLORADO...

CITY           SKY/WX    TMP DP  RH WIND       PRES   REMARKS
DURANGO        SUNNY     63  15  15 SW15G24   30.09S
CORTEZ         SUNNY     66  20  17 NW7       30.07F
PAGOSA SPRINGS NOT AVBL
TELLURIDE      SUNNY     54  19  26 W3        30.18S
WOLF CREEK PAS SUNNY     36  19  51 S15G26    30.29S
$$

COZ009-010-012-014-032>034-037-058>063-180100-
...CENTRAL COLORADO...

CITY           SKY/WX    TMP DP  RH WIND       PRES   REMARKS
ASPEN          MOSUNNY   56  16  20 CALM      30.10R
BUENA VISTA    NOT AVBL
COPPER MTN     SUNNY     37  14  38 SW15G23   30.25R
BERTHOUD PASS  FAIR      32  21  64 NW18G31   30.25R WCI  20
COTTONWOOD PAS SUNNY     50  10  20 W12G21    30.18R
GUNNISON       SUNNY     55  16  21 W12G18    30.14S
KREMMLING      MOSUNNY   54  12  19 SW12G20   30.07R
LEADVILLE      SUNNY     42  14  32 W9G21     30.16R
MONARCH PASS   SUNNY     36  16  44 SW20G38   30.36R
SALIDA         NOT AVBL
SUNLIGHT       MOSUNNY   43  23  45 CALM      30.24R
WILKERSON PASS SUNNY     37  23  56 SW7       30.24R
$$

COZ069>075-180100-
...SAN LUIS VALLEY/SANGRE DE CRISTO MOUNTAINS...

CITY           SKY/WX    TMP DP  RH WIND       PRES   REMARKS
ALAMOSA        SUNNY     57  32  38 SE9       30.09F
LA VETA PASS   SUNNY     43  27  52 SW10G17   30.20F
SAGUACHE       NOT AVBL
$$

COZ035-036-038>040-180100-
...NORTHERN COLORADO FRONT RANGE...

CITY           SKY/WX    TMP DP  RH WIND       PRES   REMARKS
DENVER INTL AP MOSUNNY   62  30  29 SE14      29.98F
DMNS CITY PARK   N/A     62  30  30 SE14      29.97F
AURORA         MOSUNNY   61  32  33 S12       30.00F
FRONT RANGE AP NOT AVBL
ERIE MUNI ARPT SUNNY     64  26  23 SE9       29.96S
BOULDER MUN AP SUNNY     64  27  24 SE8       29.96F
CENTENNIAL     PTSUNNY   58  33  39 S16G25    30.00S
BROOMFIELD     MOSUNNY   63  25  23 SE3       29.99F
FORT COLLINS   SUNNY     64  28  25 SE7       29.98F
LONGMONT       SUNNY     67  22  17 S3        29.97F
$$

COZ041-046-047-076>085-087-088-180100-
...PIKES PEAK/PALMER DIVIDE AND SOUTHERN FOOTHILLS...

CITY           SKY/WX    TMP DP  RH WIND       PRES   REMARKS
COLO. SPRINGS  PTSUNNY   54  31  41 S16       30.08F
A. F. ACADEMY  SUNNY     52  33  48 SE20      30.07F
ELLICOTT       NOT AVBL
FALCON         SUNNY     51  31  45 S17       30.10S
FORT CARSON    SUNNY     56  33  40 S18       30.06F
LIMON          SUNNY     54  31  41 S17G30    30.07F
MONUMENT HILL  SUNNY     50  32  50 S23G30    30.05S
TRINIDAD       SUNNY     56  32  40 S10       30.10F
$$

COZ042>045-048>051-090-091-180100-
...NORTHEAST COLORADO...

CITY           SKY/WX    TMP DP  RH WIND       PRES   REMARKS
GREELEY ARPT   SUNNY     63  25  23 E8        29.97F
AKRON          SUNNY     59  29  31 S17       30.02S
BURLINGTON     SUNNY     52  37  56 S25G32    30.11F
WRAY           NOT AVBL
STERLING       SUNNY     68  30  24 SW8       29.97F
HOLYOKE        SUNNY     61  36  39 S18G28    30.04F
FORT MORGAN    NOT AVBL
$$

COZ086-089-092>099-180100-
...SOUTHEAST COLORADO...

CITY           SKY/WX    TMP DP  RH WIND       PRES   REMARKS
PUEBLO         SUNNY     61  32  33 SE15      30.03F
LA JUNTA       SUNNY     60  34  37 SE14      30.07F
LAMAR          SUNNY     55  37  50 S17       30.12F
SPRINGFIELD      N/A     49  35  58 S16       30.17F
$$



USA.gov is the U.S. government's official web portal to all federal, state and local government web resources and services.